Theta_e
322 318 323 320 307 308 302 303 308 308 311 314 319 315 314 316 311 305 334 338 340 341 343 341 344 344 345 343 344 343 344 344 345 345 345 344 343 342 341 342 345 346 343 342 340 339 339 338 338
318 316 321 315 303 299 301 305 307 312 313 316 316 316 315 315 324 327 332 339 341 342 342 339 342 344 345 344 343 343 342 342 342 341 340 341 341 340 341 342 343 344 342 341 340 338 338 337 337
314 316 315 307 304 299 300 304 310 311 315 315 314 318 315 318 326 330 337 340 341 341 342 339 342 345 345 344 342 342 342 341 340 340 339 339 339 341 340 340 341 341 341 340 338 338 337 336 335
315 314 310 302 297 303 302 306 310 311 310 312 316 313 321 328 329 334 339 340 339 340 341 340 343 344 343 343 342 342 341 339 339 338 339 338 337 340 339 339 339 340 339 338 337 337 335 335 334
317 314 307 300 298 302 304 305 313 310 310 313 315 313 317 329 334 337 337 339 337 339 341 339 342 343 343 343 342 342 342 341 340 339 340 339 337 337 339 338 337 338 338 336 336 335 334 333 333
313 312 305 302 301 301 304 307 312 309 310 313 313 314 319 332 334 334 338 339 338 338 341 339 336 339 341 342 341 342 342 341 339 340 341 340 338 338 338 337 336 335 336 335 335 334 333 332 331
310 308 306 305 302 299 305 308 310 309 309 312 318 311 321 326 334 334 337 339 337 339 341 340 339 337 335 337 337 339 341 341 340 339 341 339 338 337 336 334 334 333 333 333 333 332 331 330 328
310 308 302 304 303 302 306 307 308 309 309 316 320 310 315 328 332 333 336 337 336 337 340 340 339 338 337 337 332 334 337 336 335 334 332 331 332 332 332 331 333 332 332 332 331 331 329 328 326
309 304 303 302 301 304 306 306 305 309 311 315 318 316 321 332 332 330 330 331 332 333 338 339 338 339 338 336 332 331 331 330 328 328 326 330 335 334 332 329 332 331 330 329 328 326 325 324 323
305 304 303 304 304 303 305 308 306 307 310 311 315 321 328 330 329 326 326 326 328 330 332 334 336 338 338 335 335 335 336 335 332 331 331 332 333 334 332 326 325 327 327 327 326 324 321 324 325
302 302 303 303 303 303 303 304 307 306 306 311 312 318 325 325 326 325 327 328 327 330 331 332 334 335 336 336 337 334 333 332 331 331 331 332 332 333 333 331 330 330 322 327 327 327 326 325 325
300 302 302 303 302 302 302 303 303 306 309 309 315 322 325 324 324 325 326 327 329 330 330 330 337 334 334 336 335 336 331 331 330 330 330 331 331 331 330 329 329 329 329 328 328 327 326 325 324
303 301 302 301 301 302 301 302 303 304 308 309 314 322 324 326 326 328 329 328 329 329 330 331 334 335 333 333 333 335 334 331 329 329 329 329 329 329 328 328 329 328 328 328 327 327 325 325 324
305 301 300 299 300 301 300 300 301 304 308 311 316 319 323 325 326 327 327 327 327 329 329 331 333 334 334 333 332 333 333 333 331 329 329 329 329 329 328 328 327 327 327 326 327 326 325 325 324
301 300 298 297 296 298 302 297 298 304 308 310 314 318 321 324 327 327 328 327 328 329 330 329 332 334 333 332 334 333 334 333 332 330 330 329 329 329 328 328 327 327 326 324 325 324 324 323 323
299 296 293 295 295 297 299 297 303 303 306 307 312 316 320 322 324 327 329 329 330 331 329 334 332 332 332 331 332 332 333 333 333 332 330 329 329 330 329 328 329 328 326 326 324 324 323 323 322
297 293 295 295 299 298 299 298 304 302 303 304 310 315 318 320 324 326 329 330 332 333 334 334 334 332 333 332 332 332 333 333 333 333 332 330 329 327 326 325 328 325 323 325 325 324 323 323 322
294 295 296 298 298 296 296 298 301 299 301 304 306 312 316 318 320 325 328 330 332 333 334 334 334 333 333 333 332 332 331 333 334 333 332 331 327 326 327 325 323 321 320 320 321 323 323 319 318
302 302 300 298 297 296 296 297 301 300 298 300 303 306 312 316 320 323 326 329 331 332 333 332 333 334 333 331 328 327 326 330 333 334 333 332 330 328 327 326 323 322 320 320 321 323 320 316 316
297 298 298 294 294 295 295 295 299 300 299 301 301 304 306 311 316 319 323 326 328 329 331 332 332 333 333 332 332 332 331 332 332 333 333 331 330 329 326 324 323 322 321 320 319 317 317 316 317
292 293 292 294 292 294 293 293 295 299 299 301 301 303 303 305 307 312 317 323 327 327 329 330 332 333 333 334 333 333 333 332 331 332 332 332 332 330 325 325 324 323 322 321 319 318 316 317 317
288 293 292 290 291 289 291 290 295 297 297 296 300 302 302 302 303 306 309 316 322 327 331 330 331 331 333 334 333 330 329 327 330 331 332 332 333 332 330 327 327 326 323 323 320 319 318 318 318
291 292 292 290 290 288 288 287 293 291 293 296 298 302 303 304 303 303 304 308 312 319 326 329 330 331 331 333 332 331 330 331 332 332 331 330 331 331 331 331 330 329 329 326 324 319 319 320 318
291 291 290 289 289 283 288 287 290 292 293 297 301 302 303 305 304 304 304 304 305 307 313 322 325 327 330 330 331 330 330 330 330 329 328 330 330 330 330 327 328 328 324 324 325 322 322 320 315
292 290 284 282 282 282 284 284 290 295 296 296 299 301 301 302 302 302 301 300 301 304 306 311 317 320 326 328 329 330 330 330 329 328 328 329 329 329 329 329 324 324 323 323 322 319 318 317 314
290 291 285 278 279 284 282 283 290 296 298 297 297 297 297 298 299 299 300 301 303 305 307 309 312 317 321 323 325 328 329 329 329 329 329 330 330 329 328 325 324 322 322 321 320 318 315 313 311
288 286 291 282 276 282 286 288 292 296 295 294 295 296 297 298 298 299 300 302 304 306 308 310 311 312 314 319 322 322 324 325 326 327 329 328 329 324 323 322 317 318 319 316 315 311 308 308 308
290 292 284 285 280 279 282 283 288 292 293 293 294 296 298 298 298 299 301 303 305 308 310 311 311 310 310 310 310 311 315 322 325 325 326 323 322 316 315 313 313 311 310 309 308 305 305 305 304
287 287 287 289 286 282 280 285 293 291 293 293 295 294 296 297 298 299 301 303 305 308 308 308 309 310 310 311 312 311 309 310 320 322 321 317 312 311 312 312 309 309 307 306 306 305 304 302 300
289 289 289 284 280 282 281 285 290 292 292 292 295 294 295 296 298 300 301 302 303 304 307 308 309 308 308 311 310 311 311 311 312 314 314 309 307 309 309 306 306 305 304 306 306 302 302 300 298
Wind_Speed
3 4 2 2 4 2 5 5 2 8 8 4 6 3 2 3 3 5 7 5 14 12 12 11 8 9 12 14 13 10 10 11 13 15 16 16 17 17 17 16 16 15 19 18 18 18 18 18 18
5 2 0 1 3 5 5 5 9 8 6 9 7 5 4 4 3 7 11 9 14 12 11 11 8 8 12 13 13 12 11 14 14 13 12 14 15 15 17 17 16 15 17 18 17 17 17 17 17
2 4 3 2 1 3 3 7 9 6 10 8 6 1 1 5 3 13 6 16 13 11 10 11 9 10 14 13 12 13 13 12 13 12 14 14 14 16 15 16 16 14 17 16 16 16 16 16 16
3 2 3 3 2 1 2 7 7 13 3 4 3 4 4 3 9 5 13 16 13 12 11 11 9 11 12 12 12 11 12 13 12 13 14 13 12 12 15 15 13 13 16 15 15 15 15 15 15
2 1 2 1 2 2 2 2 11 13 8 8 6 5 3 5 6 11 14 13 14 12 12 12 10 10 11 10 9 11 13 12 12 10 14 12 13 10 12 14 13 15 15 14 14 14 14 14 15
3 2 4 5 3 1 2 4 10 7 5 7 5 8 5 5 10 12 13 13 13 13 11 12 10 9 9 9 8 8 10 12 11 9 11 13 13 11 12 15 13 14 13 13 13 13 14 14 14
3 3 4 5 2 3 2 7 11 8 7 6 6 7 4 6 9 12 13 11 11 12 11 11 11 10 8 8 8 7 9 11 11 11 10 14 12 11 12 11 11 12 11 12 12 13 13 13 12
2 2 4 4 6 4 6 9 4 8 6 2 4 6 6 12 13 12 11 11 12 11 10 10 11 10 10 9 6 8 9 10 10 11 11 12 11 11 11 9 10 11 12 13 12 12 12 12 12
2 4 7 6 6 2 7 9 3 2 7 3 5 1 4 19 15 12 12 11 10 9 10 10 10 9 9 9 8 7 8 8 9 9 8 6 6 8 7 10 9 11 11 11 11 10 9 8 9
3 5 8 3 3 1 5 9 10 7 7 6 6 4 7 17 16 17 15 13 14 13 11 10 10 10 9 7 9 7 7 6 5 5 5 4 5 5 7 8 8 10 9 10 9 8 3 1 4
4 6 5 4 4 3 2 6 7 7 8 11 14 13 14 17 16 17 17 16 15 14 11 10 10 10 10 7 6 4 4 4 4 6 5 5 5 4 3 4 3 3 1 3 3 3 4 5 4
8 4 4 6 3 4 4 4 6 11 6 3 7 17 18 19 18 19 17 15 15 15 14 12 14 11 10 7 6 6 5 5 5 5 6 5 4 4 4 3 3 2 1 3 3 3 4 4 4
7 6 6 4 4 2 4 7 7 10 8 2 8 16 19 18 18 17 16 13 14 15 14 14 13 12 11 11 7 6 6 5 5 6 6 5 5 5 4 3 2 2 2 2 2 2 2 2 2
7 4 5 3 2 4 4 2 5 4 10 5 10 15 17 19 20 17 18 17 16 14 14 13 15 13 12 10 10 8 6 7 6 6 6 6 4 4 4 3 3 2 2 2 2 1 1 0 1
4 8 2 3 4 4 5 5 10 5 9 9 11 11 13 15 17 20 19 18 17 14 14 14 16 15 13 12 11 9 8 7 7 7 8 8 7 6 5 3 3 3 2 3 3 2 2 3 2
4 3 5 5 6 4 6 13 11 11 11 13 10 9 12 14 17 16 16 16 16 15 15 15 12 15 14 12 10 7 8 8 7 7 7 9 8 7 6 5 4 4 4 3 3 3 3 3 3
3 7 12 5 10 5 10 10 6 7 11 12 12 12 12 13 15 16 17 17 17 17 15 15 15 16 15 13 9 9 10 8 7 7 7 10 10 8 6 5 3 5 3 4 4 4 4 3 4
9 9 6 11 8 7 9 14 4 5 8 10 11 12 13 13 17 17 17 17 17 16 15 14 13 15 15 10 9 7 7 8 8 8 9 11 9 11 9 6 5 5 4 4 4 5 3 3 4
11 10 12 8 4 7 14 14 15 9 6 10 11 12 13 16 14 14 15 16 16 16 17 16 16 16 12 11 10 8 8 8 8 9 12 11 10 11 11 7 7 7 7 6 6 5 5 4 3
11 10 11 2 3 6 6 15 15 10 9 12 12 13 15 14 14 14 16 17 18 18 17 18 18 17 15 11 11 8 9 9 10 10 11 12 12 11 9 8 7 8 6 6 6 6 3 3 4
9 12 7 2 3 3 5 16 16 11 13 13 12 13 11 16 17 17 18 20 19 20 21 20 19 18 17 16 10 9 6 6 9 9 9 10 12 11 11 11 9 9 8 7 8 8 8 4 4
9 8 4 4 2 7 2 9 10 16 16 12 16 15 17 16 14 12 15 19 21 20 16 18 19 19 16 18 14 17 12 12 11 10 9 9 13 13 12 11 12 11 8 9 8 7 6 7 5
4 9 7 3 4 4 6 7 4 2 12 14 16 18 18 18 15 15 18 18 15 12 16 17 17 16 18 17 17 14 15 11 9 8 11 11 9 11 12 12 12 12 8 9 8 7 8 7 4
12 8 6 3 2 9 13 10 9 11 14 17 21 22 21 21 16 14 7 8 9 11 13 14 17 17 16 17 18 18 17 14 9 9 9 7 7 7 11 7 7 8 6 7 7 7 9 8 5
6 14 5 6 7 7 3 7 14 11 13 14 14 11 11 11 12 13 13 12 12 12 11 11 14 16 16 17 17 17 16 15 14 12 10 10 8 8 9 10 8 6 6 5 5 6 6 6 5
17 16 6 8 5 2 2 9 5 13 13 9 11 9 7 6 6 7 8 10 11 10 10 12 13 13 14 14 14 13 15 10 10 12 9 8 8 8 7 7 6 6 5 6 5 4 3 4 3
11 11 5 7 2 2 6 5 11 18 14 9 11 10 11 11 10 8 5 7 9 10 10 10 10 10 10 11 10 9 10 12 9 9 10 7 6 5 5 6 6 5 6 6 6 4 4 4 4
10 13 7 3 5 6 4 5 9 3 7 4 4 9 11 9 8 7 6 7 7 8 8 8 7 8 8 8 8 8 9 7 7 8 12 7 6 7 7 6 7 6 6 7 7 5 5 7 5
7 11 4 6 4 3 2 3 5 2 5 9 8 6 6 4 5 5 5 6 7 7 7 6 6 6 6 6 6 8 9 11 11 9 8 7 6 8 9 9 8 10 8 7 8 8 8 9 8
3 12 14 8 6 2 3 6 2 3 2 6 9 5 2 2 7 9 9 8 7 7 7 8 6 6 7 6 6 7 6 7 8 7 8 7 8 7 9 8 7 9 8 9 10 10 9 10 9
Wind_Direction
310 328 270 243 225 245 137 144 121 140 158 126 137 213 208 13 344 54 137 115 137 138 127 128 119 108 103 102 93 80 75 76 75 83 85 84 85 83 79 71 68 83 85 81 78 76 72 70 70
343 295 279 1 237 206 142 148 175 149 120 134 134 144 180 98 86 110 147 157 145 138 133 127 121 108 110 105 101 91 87 85 80 82 85 91 92 86 79 77 69 77 85 83 78 75 73 70 69
349 1 316 356 265 222 162 183 148 127 137 153 142 308 98 101 104 149 122 154 145 140 131 121 122 111 110 104 100 96 90 90 99 98 93 84 88 86 83 82 72 71 86 81 78 76 74 71 68
315 83 94 285 254 71 359 167 151 145 169 190 152 142 132 20 152 147 149 153 149 142 134 127 120 115 111 111 107 105 99 101 96 102 95 96 97 73 82 80 86 88 84 85 82 81 77 71 68
46 180 163 165 274 279 257 232 175 162 152 159 177 145 111 121 126 133 158 157 147 146 136 136 127 121 117 116 119 115 117 117 110 105 111 98 99 88 83 88 81 76 78 82 82 79 76 73 71
174 273 193 225 222 231 238 191 182 172 153 139 170 146 118 113 143 149 165 159 150 146 146 137 129 123 121 113 95 97 118 102 89 88 107 111 97 95 89 85 81 80 77 82 82 80 77 74 70
211 229 223 197 207 242 196 161 196 181 159 175 131 152 109 173 158 154 167 153 153 148 154 147 143 135 116 113 111 87 94 100 87 67 100 96 81 85 81 87 86 87 81 85 80 78 76 72 67
150 209 177 219 213 216 152 167 193 191 169 100 183 176 161 177 166 154 165 160 155 161 157 159 148 152 147 142 110 101 91 90 86 80 70 86 88 85 80 98 81 85 81 82 80 76 74 68 60
187 204 215 207 196 153 152 179 159 112 149 181 173 256 89 144 153 155 158 160 162 168 170 166 163 156 149 143 128 119 107 96 102 101 91 137 116 114 122 66 76 85 81 79 74 72 72 83 75
183 218 211 183 186 130 186 202 160 188 168 187 184 132 142 153 162 167 173 170 174 176 177 177 170 166 159 154 154 149 142 149 131 128 128 114 116 83 89 83 75 74 74 70 69 65 82 304 49
179 211 170 186 211 177 169 215 171 195 205 206 197 166 164 170 176 179 183 182 181 179 177 183 176 174 174 165 160 158 155 149 144 137 132 130 135 145 123 125 127 116 72 85 86 69 44 44 29
183 194 168 150 170 153 180 143 211 213 217 306 194 164 165 180 182 189 189 187 187 184 184 186 184 179 183 179 184 171 161 166 165 160 157 153 149 148 139 123 121 122 86 88 50 53 42 38 38
208 166 176 148 181 188 137 213 229 234 224 316 158 164 175 184 188 193 194 187 196 190 190 187 196 178 187 187 189 187 177 181 176 174 173 177 167 160 154 146 155 127 129 140 134 84 50 41 12
174 177 148 147 214 192 207 187 203 240 188 173 180 184 183 188 188 192 197 193 193 195 196 189 200 189 188 190 196 196 198 186 188 184 187 188 178 175 171 165 166 184 182 166 190 194 216 265 299
137 189 148 186 186 233 218 201 224 206 172 187 202 195 194 193 190 198 197 199 198 200 196 199 197 192 190 195 197 197 200 198 195 197 186 188 190 185 192 188 184 176 183 208 214 218 242 258 253
149 122 167 197 168 220 228 249 240 183 178 194 203 207 200 198 204 204 201 199 200 201 201 201 195 194 192 194 200 197 209 205 205 202 191 195 196 194 195 193 204 181 182 215 230 244 261 266 268
316 190 207 171 198 169 215 245 251 188 197 194 196 203 207 206 206 205 204 201 200 201 200 201 195 196 196 199 201 197 205 211 206 204 204 198 199 199 201 205 200 166 189 213 224 236 249 261 265
175 210 198 213 178 198 206 241 213 199 228 224 205 206 209 213 215 208 206 204 204 206 207 204 199 202 198 197 202 203 207 208 205 207 205 200 199 202 210 207 192 179 190 210 223 247 233 264 283
190 199 213 220 171 213 221 237 240 202 218 218 215 215 213 219 214 209 205 208 209 209 208 206 202 204 194 196 197 204 208 207 213 210 212 202 205 200 204 208 196 191 206 203 216 229 239 240 225
171 183 202 151 125 239 231 245 245 225 231 225 226 219 222 223 211 208 205 203 209 211 211 210 209 204 203 197 199 204 203 215 214 211 207 202 201 201 194 193 197 200 205 207 203 200 204 237 198
179 191 173 216 136 225 285 264 247 232 233 233 234 240 234 231 224 210 202 206 206 211 210 212 211 210 204 205 201 205 204 210 210 215 212 211 216 208 191 197 195 197 205 212 197 202 205 227 199
188 203 152 149 213 244 257 269 223 236 228 215 230 225 235 231 230 238 217 212 207 212 210 208 209 210 208 202 202 202 208 210 215 213 212 206 208 215 215 210 209 204 203 217 207 195 205 220 237
180 145 151 129 220 272 200 258 238 243 237 229 226 228 231 232 225 214 212 218 214 210 209 208 211 210 206 203 202 207 216 219 215 208 214 210 203 211 213 217 222 220 212 223 217 199 210 210 221
141 110 84 100 197 249 236 235 251 221 224 234 227 219 219 227 226 231 218 204 207 195 206 211 210 212 207 207 207 214 216 216 214 207 212 212 210 206 218 213 210 212 198 211 216 202 213 208 204
178 158 158 214 216 244 88 240 262 240 243 240 249 244 241 236 233 236 224 209 207 200 197 207 208 210 206 205 209 214 218 217 215 212 212 208 216 217 216 203 189 196 201 204 197 197 200 199 195
184 186 177 195 208 218 75 237 239 249 266 254 251 259 268 248 215 222 228 227 216 198 195 195 199 203 202 203 208 217 218 220 217 219 216 218 222 227 208 179 175 181 177 179 178 177 161 155 164
175 204 141 106 47 272 209 256 267 265 263 252 248 249 253 246 241 238 230 217 206 193 188 190 191 199 199 202 207 213 221 219 212 210 215 217 214 195 169 157 139 157 152 143 137 136 134 123 117
202 144 171 211 192 228 196 263 250 246 263 287 246 246 237 224 238 225 199 182 174 175 178 184 186 188 185 192 203 214 221 220 209 200 212 184 176 145 145 139 145 142 131 129 128 123 126 121 115
156 185 180 178 206 212 263 228 240 296 277 291 290 289 245 199 202 202 187 175 166 162 168 174 182 183 192 194 194 207 214 217 220 215 189 164 140 144 161 163 163 144 140 136 134 140 140 133 130
186 185 193 199 196 263 90 268 178 230 269 309 313 313 280 202 169 172 171 167 167 174 179 188 187 182 197 195 202 209 211 202 197 177 172 144 150 162 167 157 148 143 147 153 153 146 152 148 144